Tracking 20093 objects as of 14-Dec-2019
HD Live streaming from Space Station
objects crossing your sky now

FENGYUN 1C DEB

Track FENGYUN 1C DEB now!
10-day predictions


NORAD ID: 37456
Int'l Code: 1999-025EJA
Perigee: 593.9 km
Apogee: 755.7 km
Inclination: 99.0 °
Period: 98.1 minutes
Semi major axis: 7045 km
RCS: 0.0113 m2 (small)
Launch date: May 10, 1999
Source: People's Republic of China (PRC)
Launch site: Taiyaun Space Center, China (TSC)

Note: This is SATELLITE DEBRIS
aabbcc
Your satellite tracking list
Your tracking list is empty




NASA's NSSDC Master Catalog

Two Line Element Set (TLE):
1 37456U 99025EJA 19347.85155211  .00000862  00000-0  14666-3 0  9994
2 37456  98.9557   7.2566 0114858  71.2008 290.1613 14.67944061555572
Source of the keplerian elements: AFSPC